TimePST,TemperatureF,Dew PointF,Humidity,Sea Level PressureIn,VisibilityMPH,Wind Direction,Wind SpeedMPH,Gust SpeedMPH,PrecipitationIn,Events,Conditions,WindDirDegrees,DateUTC
12:51 AM,48.9,21.9,35,30.16,10.0,Calm,Calm,-,N/A,,Clear,0,2014-01-16 08:51:00
1:51 AM,46.0,21.9,39,30.16,10.0,Calm,Calm,-,N/A,,Clear,0,2014-01-16 09:51:00
2:51 AM,45.0,24.1,44,30.15,10.0,Calm,Calm,-,N/A,,Clear,0,2014-01-16 10:51:00
3:51 AM,46.9,19.9,34,30.14,10.0,SSE,4.6,-,N/A,,Clear,150,2014-01-16 11:51:00
4:51 AM,45.0,19.9,37,30.14,10.0,South,3.5,-,N/A,,Clear,170,2014-01-16 12:51:00
5:51 AM,45.0,23.0,42,30.14,10.0,ESE,5.8,-,N/A,,Clear,120,2014-01-16 13:51:00
6:51 AM,46.0,19.0,34,30.16,10.0,South,3.5,-,N/A,,Clear,170,2014-01-16 14:51:00
7:51 AM,48.9,21.0,33,30.16,10.0,SSE,3.5,-,N/A,,Clear,150,2014-01-16 15:51:00
8:51 AM,64.0,19.0,18,30.17,10.0,Calm,Calm,-,N/A,,Clear,0,2014-01-16 16:51:00
9:51 AM,73.9,16.0,11,30.17,10.0,Calm,Calm,-,N/A,,Clear,0,2014-01-16 17:51:00
10:51 AM,77.0,21.0,12,30.16,10.0,NW,4.6,-,N/A,,Clear,310,2014-01-16 18:51:00
11:51 AM,82.0,18.0,9,30.13,10.0,SW,3.5,-,N/A,,Clear,230,2014-01-16 19:51:00
12:51 PM,88.0,5.0,4,30.09,10.0,WSW,6.9,-,N/A,,Clear,250,2014-01-16 20:51:00
1:51 PM,87.1,17.1,8,30.06,10.0,WNW,8.1,-,N/A,,Clear,300,2014-01-16 21:51:00
2:51 PM,82.9,27.0,13,30.06,10.0,WNW,6.9,-,N/A,,Clear,300,2014-01-16 22:51:00
3:51 PM,75.9,28.9,18,30.07,10.0,North,4.6,-,N/A,,Clear,360,2014-01-16 23:51:00
7:51 PM,54.0,24.1,31,30.12,10.0,SE,3.5,-,N/A,,Clear,130,2014-01-17 03:51:00
8:51 PM,55.0,21.0,27,30.13,10.0,SE,3.5,-,N/A,,Clear,130,2014-01-17 04:51:00
9:51 PM,50.0,21.9,33,30.13,10.0,North,-9999.0,-,N/A,,Clear,0,2014-01-17 05:51:00
10:51 PM,52.0,19.9,28,30.12,10.0,Calm,Calm,-,N/A,,Clear,0,2014-01-17 06:51:00
11:51 PM,48.9,19.9,32,30.11,10.0,Variable,4.6,-,N/A,,Clear,0,2014-01-17 07:51:00